Stations météo

Publicité
Perpignan, France (7747): Température de l'air & dewpoint: 15.10.2018 17:00:00 - 21.10.2018 17:00:00 (CEST)Perpignan, France (7747): Température de l'air 5cm: 15.10.2018 17:00:00 - 21.10.2018 17:00:00 (CEST)Perpignan, France (7747): Température de l'air -20cm & Température de l'air -100cm: 15.10.2018 17:00:00 - 21.10.2018 17:00:00 (CEST)Perpignan, France (7747): Vitesse du vent & gusts: 15.10.2018 17:00:00 - 21.10.2018 17:00:00 (CEST)Perpignan, France (7747): Direction du vent: 15.10.2018 17:00:00 - 21.10.2018 17:00:00 (CEST)Perpignan, France (7747): reduced air pressure: 15.10.2018 17:00:00 - 21.10.2018 17:00:00 (CEST)Perpignan, France (7747): visibility: 15.10.2018 17:00:00 - 21.10.2018 17:00:00 (CEST)Perpignan, France (7747): Quantités de précipitations: 15.10.2018 17:00:00 - 21.10.2018 17:00:00 (CEST)
Date & Time tt [°C] td [°C] tt 5cm [°C] tt -20cm [°C] tt -100cm [°C] ff [km/h] ff [knt] fx [km/h] fx [knt] dd ppp [hPa] vv [km] rr [mm]
21.10.2018 17:00:00 25,5 10,1 27,4 20,5 21,5 22 12 42 23 NW 1017,3 51 0,0
21.10.2018 16:00:00 25,8 9,2 26,9 20,3 21,5 22 12 35 19 NW 1018,2 55 0,0
21.10.2018 15:00:00 26,0 9,3 27,4 20,0 21,5 19 10 30 16 NW 1018,8 43 0,0
21.10.2018 14:00:00 24,3 14,7 28,6 19,8 21,5 6 4 13 7 ESE 1019,6 38 0,0
21.10.2018 13:00:00 23,1 15,7 27,8 19,6 21,5 7 4 14 8 ESE 1020,6 44 0,0
21.10.2018 12:00:00 22,5 14,6 27,2 19,5 21,5 10 5 14 8 E 1021,5 42 0,0
21.10.2018 11:00:00 21,6 14,0 26,5 19,5 21,5 3 2 8 4 S 1021,9 53 0,0
21.10.2018 10:00:00 18,1 14,4 16,0 19,6 21,5 3 2 8 5 W 1022,2 41 0,0
21.10.2018 09:00:00 14,3 13,3 10,6 19,7 21,5 6 3 9 5 WSW 1022,1 12 0,0
21.10.2018 08:00:00 13,5 12,1 10,5 19,9 21,5 0 0 11 6 N 1021,9 19 0,0
21.10.2018 07:00:00 14,1 12,7 10,9 20,0 21,5 4 2 8 4 WSW 1022,1 20 0,0
21.10.2018 06:00:00 14,2 12,9 11,0 20,1 21,5 3 2 6 3 NW 1022,4 24 0,0
21.10.2018 05:00:00 14,5 12,7 12,0 20,3 21,5 0 0 11 6 N 1022,5 26 0,0
21.10.2018 04:00:00 15,2 13,7 11,9 20,4 21,5 8 5 11 6 SW 1022,6 20 0,0
21.10.2018 03:00:00 14,8 13,0 13,1 20,6 21,5 6 3 15 8 W 1023,1 20 0,0
21.10.2018 02:00:00 15,6 13,6 13,4 20,7 21,5 11 6 15 8 WSW 1023,3 23 0,0
21.10.2018 01:00:00 16,2 14,9 12,8 20,8 21,5 6 3 9 5 W 1023,5 13 0,0
21.10.2018 00:00:00 16,5 15,0 13,6 20,9 21,6 4 2 7 4 W 1023,9 14 0,0
20.10.2018 23:00:00 17,0 15,3 14,3 21,0 21,5 3 2 4 2 WSW 1024,0 9 0,0
20.10.2018 22:00:00 18,1 15,7 15,2 21,0 21,5 0 0 4 2 N 1023,6 12 0,0
20.10.2018 21:00:00 19,0 15,9 16,9 21,1 21,5 0 0 3 2 N 1023,4 16 0,0
20.10.2018 20:00:00 19,7 15,6 16,9 21,0 21,5 0 0 4 2 N 1023,0 19 0,0
20.10.2018 19:00:00 20,7 14,8 18,9 21,0 21,5 3 1 9 5 E 1022,6 21 0,0
20.10.2018 18:00:00 21,7 14,3 21,7 20,8 21,6 7 4 11 6 ESE 1022,3 22 0,0
20.10.2018 17:00:00 22,8 15,6 24,3 20,6 21,5 4 2 14 8 SE 1022,3 24 0,0
20.10.2018 16:00:00 23,4 16,2 25,7 20,4 21,5 6 3 15 8 SSE 1022,6 19 0,0
20.10.2018 15:00:00 22,9 16,0 23,8 20,1 21,6 7 4 18 10 SSE 1022,8 30 0,0
20.10.2018 14:00:00 22,8 15,6 25,1 19,9 21,5 13 7 21 12 SE 1023,3 18 0,0
20.10.2018 13:00:00 23,6 14,6 26,8 19,8 21,6 3 1 8 5 WSW 1023,7 17 0,0
20.10.2018 12:00:00 22,1 15,4 24,9 19,7 21,6 3 2 10 5 S 1023,8 40 0,0
20.10.2018 11:00:00 19,7 15,8 19,8 19,7 21,6 0 0 11 6 N 1023,6 29 0,0
20.10.2018 10:00:00 17,7 15,7 16,5 19,7 21,6 7 4 11 6 WSW 1023,4 23 0,0
20.10.2018 09:00:00 16,1 15,1 14,1 19,8 21,6 4 2 9 5 WSW 1022,8 14 0,0
20.10.2018 08:00:00 15,4 14,3 13,2 19,9 21,6 6 3 9 5 NNE 1021,7 12 0,0
20.10.2018 07:00:00 16,0 14,2 13,4 20,0 21,6 0 0 10 5 N 1021,1 16 0,0
20.10.2018 06:00:00 16,7 14,7 15,0 20,0 21,6 0 0 5 3 N 1020,5 20 0,0
20.10.2018 05:00:00 17,2 14,8 16,2 20,1 21,6 4 2 10 5 SW 1020,4 25 0,0
20.10.2018 04:00:00 17,5 14,8 16,5 20,1 21,6 5 3 10 5 WSW 1020,4 26 0,0
20.10.2018 03:00:00 17,3 15,3 16,3 20,2 21,6 5 3 6 4 WSW 1020,5 22 0,0
20.10.2018 02:00:00 17,4 15,6 16,4 20,2 21,6 0 0 6 3 N 1020,4 19 0,0
20.10.2018 01:00:00 17,6 15,4 16,8 20,3 21,6 4 2 8 5 WSW 1020,3 20 0,0
20.10.2018 00:00:00 17,7 15,7 16,2 20,4 21,6 6 3 10 5 SW 1020,2 20 0,0
19.10.2018 23:00:00 17,2 15,4 16,1 20,5 21,6 6 3 10 5 W 1019,7 15 0,0
19.10.2018 22:00:00 17,4 15,6 15,2 20,5 21,7 9 5 12 6 SW 1019,4 14 0,0
19.10.2018 21:00:00 17,8 15,1 15,2 20,6 21,7 6 3 8 4 WSW 1019,1 15 0,0
19.10.2018 20:00:00 19,0 15,5 17,5 20,6 21,7 0 0 3 2 N 1018,8 19 0,0
19.10.2018 19:00:00 19,9 13,6 18,4 20,5 21,7 0 0 0 0 N 1018,1 10 0,0
19.10.2018 18:00:00 20,4 13,6 20,8 20,4 21,7 0 0 9 5 N 1017,8 25 0,0
19.10.2018 17:00:00 20,6 13,3 21,2 20,2 21,7 7 4 13 7 E 1017,8 27 0,0
19.10.2018 16:00:00 22,3 13,9 22,8 20,0 21,7 0 0 6 3 N 1017,7 33 0,0
19.10.2018 15:00:00 22,1 13,4 25,0 19,8 21,7 3 2 8 4 NE 1017,6 34 0,0
19.10.2018 14:00:00 22,2 13,3 24,0 19,6 21,7 0 0 8 4 N 1018,1 45 0,0
19.10.2018 13:00:00 21,3 13,0 22,5 19,5 21,7 2 1 8 4 ENE 1018,8 36 0,0
19.10.2018 12:00:00 20,0 14,8 19,7 19,5 21,7 5 3 9 5 WSW 1018,6 30 0,0
19.10.2018 11:00:00 19,0 14,7 19,1 19,5 21,7 4 2 8 4 NNW 1018,4 27 0,0
19.10.2018 10:00:00 18,0 14,9 17,4 19,5 21,7 0 0 5 3 N 1018,2 29 0,0
19.10.2018 09:00:00 17,4 14,9 16,5 19,5 21,8 2 1 9 5 WSW 1017,5 28 0,0
19.10.2018 08:00:00 17,1 14,6 15,6 19,6 21,8 5 3 9 5 SW 1016,7 25 0,0
19.10.2018 07:00:00 17,0 14,1 15,8 19,6 21,8 8 5 13 7 NNW 1016,0 24 0,0
19.10.2018 06:00:00 17,3 14,0 15,9 19,6 21,8 7 4 9 5 NNW 1015,8 30 0,0
19.10.2018 05:00:00 17,4 14,5 15,7 19,7 21,8 3 1 10 5 W 1015,9 35 0,0
19.10.2018 04:00:00 17,3 14,2 15,5 19,7 21,8 6 3 11 6 W 1015,8 32 0,0
19.10.2018 03:00:00 17,7 15,0 16,7 19,8 21,8 5 3 9 5 WSW 1015,8 32 0,0
19.10.2018 02:00:00 17,6 15,0 16,8 19,8 21,8 6 4 9 5 WSW 1015,7 30 0,0
19.10.2018 01:00:00 17,3 14,9 15,8 19,9 21,8 3 2 8 4 W 1015,5 30 0,0
19.10.2018 00:00:00 16,8 14,8 15,2 20,0 21,8 6 3 10 5 WSW 1015,4 29 0,0
18.10.2018 23:00:00 17,0 14,5 15,0 20,0 21,8 4 2 11 6 WSW 1015,3 34 0,0
18.10.2018 22:00:00 17,3 14,8 16,2 20,1 21,8 8 4 18 10 WSW 1014,7 31 0,0
18.10.2018 21:00:00 18,1 15,0 17,2 20,1 21,8 11 6 18 10 WNW 1014,6 36 0,0
18.10.2018 20:00:00 18,3 15,4 17,7 20,1 21,9 10 5 15 8 WNW 1014,5 24 0,0
18.10.2018 19:00:00 18,8 15,3 18,3 20,1 21,9 11 6 17 9 WNW 1014,1 44 0,0
18.10.2018 18:00:00 18,8 15,8 19,0 20,0 21,9 9 5 14 7 WNW 1013,8 40 0,0
18.10.2018 17:00:00 19,4 15,9 19,9 19,9 21,9 8 4 15 8 WNW 1013,8 33 0,0
18.10.2018 16:00:00 19,5 15,8 20,2 19,8 21,9 9 5 13 7 NW 1013,9 36 0,0
18.10.2018 15:00:00 18,9 16,5 19,2 19,8 21,9 6 3 10 5 W 1014,3 26 0,0
18.10.2018 14:00:00 18,6 16,0 18,2 19,8 21,9 6 3 8 5 WNW 1014,5 25 0,0
18.10.2018 13:00:00 18,2 15,6 17,8 19,8 21,9 5 3 9 5 NNW 1015,0 25 0,0
18.10.2018 12:00:00 18,1 16,4 17,5 19,8 21,9 4 2 8 5 W 1015,0 15 0,0
18.10.2018 11:00:00 17,6 15,6 16,9 19,8 21,9 3 2 9 5 N 1014,8 21 0,0
18.10.2018 10:00:00 17,2 15,5 16,9 19,9 21,9 6 3 15 8 NNW 1014,5 20 0,0
18.10.2018 09:00:00 16,9 15,4 16,3 19,9 22,0 10 5 18 10 NNW 1014,0 25 0,0
18.10.2018 08:00:00 16,5 15,2 15,8 20,0 21,9 10 5 16 9 WNW 1014,0 27 0,2
18.10.2018 07:00:00 16,1 15,3 15,7 20,1 21,9 5 3 16 9 WNW 1014,0 6 2,8
18.10.2018 06:00:00 16,1 15,3 15,8 20,1 22,0 9 5 15 8 NW 1013,7 1,8 7,3
18.10.2018 05:00:00 16,2 15,4 15,9 20,1 22,0 10 6 17 9 NW 1013,6 4,6 2,2
18.10.2018 04:00:00 16,2 15,2 15,9 20,2 22,0 10 6 15 8 NW 1014,1 2,1 3,8
18.10.2018 03:00:00 16,8 15,7 16,2 20,2 22,0 5 3 8 5 WNW 1014,7 4,9 2,2
18.10.2018 02:00:00 17,2 15,5 16,6 20,3 22,0 0 0 6 3 N 1014,9 6 0,0
18.10.2018 01:00:00 17,3 15,8 17,0 20,3 22,0 5 3 13 7 NNE 1015,2 16 0,0
18.10.2018 00:00:00 17,3 16,2 16,6 20,4 22,0 4 2 9 5 N 1015,3 20 0,0
17.10.2018 23:00:00 17,1 16,0 16,8 20,4 22,0 3 2 7 4 W 1015,5 19 0,0
17.10.2018 22:00:00 17,2 16,1 16,7 20,5 22,1 3 1 8 4 W 1015,3 16 0,0
17.10.2018 21:00:00 17,3 16,2 17,0 20,5 22,1 6 3 10 6 W 1015,2 11 0,0
17.10.2018 20:00:00 17,3 16,2 16,9 20,5 22,1 5 3 13 7 WSW 1015,2 18 0,0
17.10.2018 19:00:00 17,2 16,1 17,1 20,5 22,1 8 4 13 7 WSW 1015,0 12 0,0
17.10.2018 18:00:00 17,6 16,5 18,1 20,5 22,1 8 4 13 7 WSW 1015,1 11 0,0
17.10.2018 17:00:00 17,5 16,0 17,0 20,4 22,1 4 2 6 4 WSW 1015,4 14 0,0
17.10.2018 16:00:00 17,3 15,8 17,0 20,3 22,1 0 0 17 9 N 1015,6 6 1,2
17.10.2018 15:00:00 19,3 15,0 20,2 20,2 22,1 9 5 16 8 E 1015,7 28 0,0
17.10.2018 14:00:00 20,2 14,8 22,3 20,1 22,1 3 1 7 4 E 1016,3 27 0,0
17.10.2018 13:00:00 19,7 14,7 20,2 20,0 22,1 0 0 10 6 N 1017,1 20 0,0
17.10.2018 12:00:00 18,8 14,5 19,3 19,9 22,1 6 3 12 7 NW 1017,2 20 0,0
17.10.2018 11:00:00 17,8 15,4 18,1 19,9 22,2 4 2 8 4 NNE 1017,6 12 0,0
17.10.2018 10:00:00 17,5 14,8 16,9 20,0 22,2 6 3 11 6 NW 1017,6 18 0,0
17.10.2018 09:00:00 16,8 15,1 16,4 20,0 22,2 6 4 10 6 WNW 1017,4 15 0,0
17.10.2018 08:00:00 16,8 15,3 16,5 20,1 22,2 5 3 10 5 N 1017,5 12 0,0
17.10.2018 07:00:00 16,9 14,9 16,4 20,1 22,2 5 3 10 5 WNW 1017,5 16 0,0
17.10.2018 06:00:00 16,8 15,0 16,2 20,2 22,2 0 0 7 4 N 1017,7 18 0,0
17.10.2018 05:00:00 16,7 15,4 16,2 20,2 22,2 4 2 9 5 WNW 1017,5 15 0,0
17.10.2018 04:00:00 16,8 15,5 16,4 20,4 22,2 6 3 13 7 WSW 1017,9 14 0,0
17.10.2018 03:00:00 17,0 15,2 16,5 20,4 22,2 9 5 13 7 NNW 1018,3 14 0,0
17.10.2018 02:00:00 17,2 15,4 16,7 20,5 22,2 7 4 10 5 NNW 1018,6 12 0,0
17.10.2018 01:00:00 17,0 15,7 16,6 20,5 22,2 5 3 13 7 NNW 1018,8 11 0,2
17.10.2018 00:00:00 17,2 16,1 17,0 20,6 22,2 8 5 16 8 N 1018,9 8 0,0
16.10.2018 23:00:00 17,4 16,4 17,1 20,7 22,3 6 3 14 8 N 1018,9 8 4,6
16.10.2018 22:00:00 17,4 16,4 17,0 20,8 22,3 5 3 11 6 W 1018,8 12 0,0
16.10.2018 21:00:00 17,3 16,3 16,2 20,8 22,3 4 2 11 6 NW 1018,7 19 0,0
16.10.2018 20:00:00 16,6 15,3 16,1 20,9 22,3 10 5 18 10 SW 1018,4 1,3 7,3
16.10.2018 19:00:00 17,5 16,0 16,4 20,9 22,3 8 5 16 8 WSW 1017,5 3,3 3,4
16.10.2018 18:00:00 17,9 16,1 17,3 20,8 22,3 0 0 23 12 N 1017,3 12 1,0
16.10.2018 17:00:00 19,0 17,5 18,2 20,6 22,3 16 9 22 12 E 1017,0 19 0,8
16.10.2018 16:00:00 18,5 17,0 18,1 20,5 22,3 15 8 33 18 E 1017,1 4,5 3,6
16.10.2018 15:00:00 20,0 16,2 20,2 20,3 22,4 0 0 13 7 N 1016,7 42 0,0
16.10.2018 14:00:00 20,1 16,1 21,7 20,0 22,3 7 4 12 6 ENE 1016,9 17 0,0
16.10.2018 13:00:00 19,4 16,1 19,8 19,9 22,3 3 2 12 7 N 1017,1 58 0,0
16.10.2018 12:00:00 18,2 16,7 18,9 19,9 22,4 8 5 14 7 N 1016,8 60 0,2
16.10.2018 11:00:00 17,4 16,6 17,1 19,9 22,3 6 3 8 4 N 1016,6 38 0,6
16.10.2018 10:00:00 16,5 15,9 16,0 20,0 22,4 5 3 12 6 W 1016,2 6 1,2
16.10.2018 09:00:00 16,1 15,3 15,4 20,1 22,4 0 0 10 5 N 1015,7 20 0,0
16.10.2018 08:00:00 15,8 15,2 14,7 20,2 22,4 7 4 11 6 WSW 1014,7 59 0,0
16.10.2018 07:00:00 15,5 14,7 14,3 20,3 22,4 4 2 9 5 WSW 1014,1 41 0,0
16.10.2018 06:00:00 15,4 14,6 14,7 20,4 22,4 6 4 9 5 N 1013,7 45 0,0
16.10.2018 05:00:00 15,4 14,8 14,0 20,6 22,4 0 0 8 4 N 1013,1 51 0,0
16.10.2018 04:00:00 15,1 14,3 13,8 20,7 22,4 4 2 8 4 NNW 1012,9 60 0,0
16.10.2018 03:00:00 15,3 14,5 14,1 20,9 22,4 3 2 6 3 W 1013,1 60 0,0
16.10.2018 02:00:00 15,4 14,6 13,9 21,0 22,4 3 1 8 4 WSW 1012,8 60 0,0
16.10.2018 01:00:00 15,1 14,1 13,9 21,2 22,5 2 1 7 4 SSW 1012,4 60 0,0
16.10.2018 00:00:00 15,5 14,4 14,7 21,3 22,5 5 3 8 5 W 1012,0 60 0,0
15.10.2018 23:00:00 15,6 14,6 15,2 21,4 22,4 8 5 13 7 W 1011,7 60 0,0
15.10.2018 22:00:00 16,3 15,5 15,8 21,5 22,4 8 5 13 7 WNW 1011,4 3,8 7,5
15.10.2018 21:00:00 16,3 15,2 15,9 21,6 22,5 8 4 14 8 NW 1010,8 5 7,0
15.10.2018 20:00:00 16,4 14,9 16,0 21,6 22,5 10 5 14 7 W 1010,4 60 0,0
15.10.2018 19:00:00 16,9 15,4 16,5 21,6 22,5 15 8 23 13 NE 1009,8 8 1,6
15.10.2018 18:00:00 17,7 14,6 16,6 21,5 22,5 6 3 16 9 NW 1009,3 60 0,6
15.10.2018 17:00:00 19,9 14,0 20,4 21,3 22,5 3 1 10 5 W 1008,5 18 0,0

tt = Température de l'air
td = dewpoint
tt 5cm = Température de l'air 5cm
tt -20cm = Température de l'air -20cm
tt -100cm = Température de l'air -100cm
ff = Vitesse du vent
fx = gusts
dd = Direction du vent
ppp = reduced air pressure
vv = visibility
rr = Quantités de précipitations

stations d'obs. à proximité